| time (UTC) | temp F | wind direction | speed MPH | gust MPH | rain 1hr in | rain 24hr in | rain mn in | humidity % | barometer mb |
| 20260502190017 | 56 | 230 | 9.0 | 13.0 | 0.00 | 0.00 | 0.00 | 53 | 1007.8 |
| 20260502185016 | 56 | 226 | 9.0 | 13.0 | 0.00 | 0.00 | 0.00 | 52 | 1007.8 |
| 20260502184045 | 56 | 227 | 9.0 | 13.0 | 0.00 | 0.00 | 0.00 | 52 | 1007.9 |
| 20260502183045 | 56 | 232 | 10.0 | 15.0 | 0.00 | 0.00 | 0.00 | 51 | 1007.9 |
| 20260502182043 | 57 | 229 | 10.0 | 15.0 | 0.00 | 0.00 | 0.00 | 51 | 1007.9 |
| 20260502181042 | 57 | 226 | 10.0 | 17.0 | 0.00 | 0.00 | 0.00 | 50 | 1007.9 |
| 20260502164035 | 63 | 235 | 12.0 | 22.0 | 0.00 | 0.00 | 0.00 | 34 | 1007.9 |
| 20260502163036 | 64 | 237 | 12.0 | 22.0 | 0.00 | 0.00 | 0.00 | 33 | 1007.9 |
| 20260502162053 | 64 | 242 | 13.0 | 21.0 | 0.00 | 0.00 | 0.00 | 31 | 1007.9 |
| 20260502161032 | 65 | 244 | 14.0 | 22.0 | 0.00 | 0.00 | 0.00 | 30 | 1007.9 |
| 20260502152027 | 65 | 237 | 14.0 | 23.0 | 0.00 | 0.00 | 0.00 | 27 | 1008.2 |
| 20260502151026 | 65 | 232 | 16.0 | 27.0 | 0.00 | 0.00 | 0.00 | 28 | 1008.2 |
| 20260502123039 | 68 | 217 | 18.0 | 27.0 | 0.00 | 0.00 | 0.00 | 26 | 1008.4 |
| 20260502122039 | 69 | 232 | 17.0 | 27.0 | 0.00 | 0.00 | 0.00 | 26 | 1008.5 |
| 20260502121058 | 70 | 221 | 17.0 | 25.0 | 0.00 | 0.00 | 0.00 | 26 | 1008.5 |
| 20260502115036 | 70 | 229 | 17.0 | 24.0 | 0.00 | 0.00 | 0.00 | 27 | 1008.6 |
| 20260502114035 | 70 | 222 | 16.0 | 25.0 | 0.00 | 0.00 | 0.00 | 27 | 1008.6 |
| 20260502113033 | 70 | 223 | 17.0 | 25.0 | 0.00 | 0.00 | 0.00 | 26 | 1008.7 |
| 20260502112032 | 70 | 220 | 15.0 | 23.0 | 0.00 | 0.00 | 0.00 | 26 | 1008.7 |
| 20260502111031 | 70 | 216 | 17.0 | 26.0 | 0.00 | 0.00 | 0.00 | 27 | 1008.8 |
| 20260502110030 | 70 | 227 | 14.0 | 26.0 | 0.00 | 0.00 | 0.00 | 27 | 1008.9 |
| 20260502105029 | 70 | 228 | 14.0 | 22.0 | 0.00 | 0.00 | 0.00 | 29 | 1009.0 |
| 20260502104028 | 70 | 219 | 14.0 | 21.0 | 0.00 | 0.00 | 0.00 | 29 | 1009.0 |
| 20260502103027 | 69 | 225 | 14.0 | 23.0 | 0.00 | 0.00 | 0.00 | 29 | 1009.1 |
| 20260502102026 | 69 | 215 | 14.0 | 23.0 | 0.00 | 0.00 | 0.00 | 29 | 1009.1 |
| 20260502101025 | 69 | 231 | 11.0 | 19.0 | 0.00 | 0.00 | 0.00 | 30 | 1009.2 |
| 20260502091042 | 66 | 223 | 9.0 | 14.0 | 0.00 | 0.00 | 0.00 | 34 | 1009.8 |
| 20260502071039 | 60 | 250 | 7.0 | 10.0 | 0.00 | 0.00 | 0.00 | 46 | 1010.3 |
| 20260502070118 | 59 | 252 | 6.0 | 10.0 | 0.00 | 0.00 | 0.00 | 47 | 1010.4 |
| 20260502065037 | 58 | 259 | 7.0 | 12.0 | 0.00 | 0.00 | 0.00 | 48 | 1010.4 |
| 20260502064036 | 58 | 262 | 6.0 | 12.0 | 0.00 | 0.00 | 0.00 | 50 | 1010.4 |
| 20260502063035 | 57 | 277 | 6.0 | 11.0 | 0.00 | 0.00 | 0.00 | 52 | 1010.5 |
| 20260502062034 | 56 | 267 | 5.0 | 10.0 | 0.00 | 0.00 | 0.00 | 53 | 1010.5 |
| 20260502061033 | 55 | 268 | 7.0 | 11.0 | 0.00 | 0.00 | 0.00 | 56 | 1010.5 |
| 20260502060052 | 53 | 268 | 7.0 | 11.0 | 0.00 | 0.00 | 0.00 | 58 | 1010.6 |
| 20260502055031 | 52 | 262 | 7.0 | 11.0 | 0.00 | 0.00 | 0.00 | 61 | 1010.6 |
| 20260502054032 | 51 | 254 | 7.0 | 11.0 | 0.00 | 0.00 | 0.00 | 64 | 1010.7 |
| 20260502053031 | 50 | 256 | 6.0 | 11.0 | 0.00 | 0.00 | 0.00 | 65 | 1010.6 |
| 20260502052029 | 49 | 257 | 5.0 | 9.0 | 0.00 | 0.00 | 0.00 | 68 | 1010.6 |
| 20260502051027 | 47 | 258 | 5.0 | 8.0 | 0.00 | 0.00 | 0.00 | 71 | 1010.7 |
| 20260502050027 | 47 | 258 | 5.0 | 7.0 | 0.00 | 0.00 | 0.00 | 72 | 1010.8 |
| 20260502045026 | 46 | 255 | 4.0 | 6.0 | 0.00 | 0.00 | 0.00 | 74 | 1010.8 |
| 20260502044025 | 46 | 249 | 5.0 | 7.0 | 0.00 | 0.00 | 0.00 | 76 | 1010.8 |
| 20260502043024 | 45 | 250 | 5.0 | 7.0 | 0.00 | 0.00 | 0.00 | 78 | 1010.9 |
| 20260502042045 | 45 | 245 | 5.0 | 7.0 | 0.00 | 0.00 | 0.00 | 78 | 1011.0 |
| 20260502041021 | 44 | 248 | 5.0 | 7.0 | 0.00 | 0.00 | 0.00 | 81 | 1011.0 |
| 20260502040021 | 43 | 249 | 5.0 | 8.0 | 0.00 | 0.00 | 0.00 | 82 | 1011.1 |
| 20260502035020 | 42 | 254 | 4.0 | 7.0 | 0.00 | 0.00 | 0.00 | 85 | 1011.1 |
| 20260502034039 | 42 | 253 | 4.0 | 7.0 | 0.00 | 0.00 | 0.00 | 85 | 1011.1 |
| 20260502033038 | 41 | 250 | 4.0 | 7.0 | 0.00 | 0.00 | 0.00 | 87 | 1011.1 |
| 20260502032017 | 41 | 248 | 6.0 | 11.0 | 0.00 | 0.00 | 0.00 | 87 | 1011.2 |
| 20260502031056 | 41 | 217 | 7.0 | 9.0 | 0.00 | 0.00 | 0.00 | 88 | 1011.2 |
| 20260502030047 | 40 | 215 | 4.0 | 7.0 | 0.00 | 0.00 | 0.00 | 89 | 1011.2 |
| 20260502025044 | 39 | 175 | 3.0 | 4.0 | 0.00 | 0.00 | 0.00 | 90 | 1011.2 |
| 20260502024103 | 39 | 159 | 3.0 | 3.0 | 0.00 | 0.00 | 0.00 | 91 | 1011.3 |
| 20260502023124 | 39 | 144 | 2.0 | 3.0 | 0.00 | 0.00 | 0.00 | 90 | 1011.5 |
| 20260502022042 | 40 | 163 | 2.0 | 4.0 | 0.00 | 0.00 | 0.00 | 89 | 1011.6 |
| 20260502021041 | 41 | 229 | 3.0 | 4.0 | 0.00 | 0.00 | 0.00 | 86 | 1011.8 |
| 20260502020040 | 41 | 243 | 1.0 | 3.0 | 0.00 | 0.00 | 0.00 | 86 | 1011.8 |
| 20260502015039 | 41 | 221 | 1.0 | 3.0 | 0.00 | 0.00 | 0.00 | 86 | 1011.9 |
| 20260502014038 | 41 | 243 | 3.0 | 4.0 | 0.00 | 0.00 | 0.00 | 86 | 1012.0 |
| 20260502013037 | 41 | 249 | 2.0 | 5.0 | 0.00 | 0.00 | 0.00 | 87 | 1012.2 |
| 20260502012036 | 41 | 218 | 4.0 | 7.0 | 0.00 | 0.00 | 0.00 | 86 | 1012.4 |
| 20260502011035 | 41 | 170 | 3.0 | 7.0 | 0.00 | 0.00 | 0.00 | 86 | 1012.3 |
| 20260502010114 | 42 | 159 | 3.0 | 5.0 | 0.00 | 0.00 | 0.00 | 84 | 1012.3 |
| 20260502005033 | 42 | 195 | 4.0 | 6.0 | 0.00 | 0.00 | 0.00 | 84 | 1012.4 |
| 20260502004032 | 42 | 145 | 3.0 | 6.0 | 0.00 | 0.00 | 0.00 | 84 | 1012.4 |
| 20260502003031 | 42 | 156 | 3.0 | 6.0 | 0.00 | 0.00 | 0.00 | 84 | 1012.6 |
| 20260502002110 | 42 | 175 | 4.0 | 6.0 | 0.00 | 0.00 | 0.00 | 82 | 1012.8 |
| 20260502001049 | 42 | 163 | 3.0 | 5.0 | 0.00 | 0.00 | 0.00 | 84 | 1012.9 |
| 20260502000028 | 42 | 150 | 3.0 | 4.0 | 0.00 | 0.00 | 0.00 | 83 | 1012.9 |
| 20260501235027 | 42 | 143 | 2.0 | 3.0 | 0.00 | 0.00 | 0.00 | 82 | 1013.0 |
| 20260501234026 | 43 | 204 | 3.0 | 4.0 | 0.00 | 0.00 | 0.00 | 81 | 1013.1 |
| 20260501233026 | 43 | 199 | 2.0 | 5.0 | 0.00 | 0.00 | 0.00 | 80 | 1013.2 |
| 20260501232045 | 43 | 198 | 2.0 | 6.0 | 0.00 | 0.00 | 0.00 | 79 | 1013.2 |
| 20260501231024 | 44 | 210 | 4.0 | 7.0 | 0.00 | 0.00 | 0.00 | 77 | 1013.3 |
| 20260501230023 | 44 | 231 | 4.0 | 6.0 | 0.00 | 0.00 | 0.00 | 77 | 1013.4 |
| 20260501225022 | 45 | 232 | 5.0 | 7.0 | 0.00 | 0.00 | 0.00 | 76 | 1013.5 |
| 20260501224021 | 45 | 218 | 7.0 | 8.0 | 0.00 | 0.00 | 0.00 | 76 | 1013.5 |
| 20260501223020 | 45 | 216 | 5.0 | 8.0 | 0.00 | 0.00 | 0.00 | 76 | 1013.5 |
| 20260501222059 | 45 | 209 | 2.0 | 5.0 | 0.00 | 0.00 | 0.00 | 75 | 1013.6 |
| 20260501221018 | 46 | 197 | 2.0 | 6.0 | 0.00 | 0.00 | 0.00 | 72 | 1013.7 |
| 20260501220017 | 46 | 203 | 3.0 | 6.0 | 0.00 | 0.00 | 0.00 | 73 | 1013.7 |
| 20260501215046 | 46 | 207 | 4.0 | 6.0 | 0.00 | 0.00 | 0.00 | 72 | 1013.8 |
| 20260501214046 | 47 | 203 | 4.0 | 6.0 | 0.00 | 0.00 | 0.00 | 71 | 1013.9 |
| 20260501213044 | 47 | 201 | 4.0 | 6.0 | 0.00 | 0.00 | 0.00 | 70 | 1014.1 |
| 20260501212043 | 48 | 200 | 3.0 | 5.0 | 0.00 | 0.00 | 0.00 | 68 | 1014.2 |
| 20260501211042 | 48 | 204 | 3.0 | 7.0 | 0.00 | 0.00 | 0.00 | 67 | 1014.3 |
| 20260501210042 | 49 | 194 | 5.0 | 7.0 | 0.00 | 0.00 | 0.00 | 65 | 1014.4 |
| 20260501205040 | 50 | 191 | 5.0 | 8.0 | 0.00 | 0.00 | 0.00 | 62 | 1014.3 |
| 20260501204039 | 51 | 201 | 4.0 | 8.0 | 0.00 | 0.00 | 0.00 | 59 | 1014.4 |
| 20260501203039 | 52 | 192 | 5.0 | 8.0 | 0.00 | 0.00 | 0.00 | 56 | 1014.4 |
| 20260501202057 | 52 | 193 | 6.0 | 9.0 | 0.00 | 0.00 | 0.00 | 54 | 1014.5 |
| 20260501201036 | 53 | 199 | 6.0 | 9.0 | 0.00 | 0.00 | 0.00 | 53 | 1014.6 |
| 20260501200035 | 53 | 207 | 5.0 | 9.0 | 0.00 | 0.00 | 0.00 | 52 | 1014.7 |
| 20260501195035 | 54 | 206 | 6.0 | 9.0 | 0.00 | 0.00 | 0.00 | 50 | 1014.7 |
| 20260501194033 | 55 | 204 | 6.0 | 9.0 | 0.00 | 0.00 | 0.00 | 48 | 1014.7 |
| 20260501193032 | 55 | 205 | 6.0 | 9.0 | 0.00 | 0.00 | 0.00 | 45 | 1014.9 |
| 20260501192031 | 56 | 200 | 5.0 | 8.0 | 0.00 | 0.00 | 0.00 | 43 | 1014.9 |
| 20260501191032 | 56 | 204 | 5.0 | 7.0 | 0.00 | 0.00 | 0.00 | 42 | 1014.9 |